Regional Weather Roundup
Issued by NWS

Home | Current Version | Previous Version | Graphics & Text | Print | Product List | Glossary On
Versions: 1 2 3 4 5 6 7 8 9 10 11 12 13 14 15 16 17 18 19 20 21 22 23 24 25 26 27 28 29 30 31 32 33 34 35 36 37 38 39 40 41 42 43 44 45 46 47 48 49 50
000
ASUS43 KFSD 290410
RWRSD

WEATHER ROUNDUP FOR SOUTH DAKOTA
NATIONAL WEATHER SERVICE SIOUX FALLS SD
1000 PM CST WED JAN 28 2015

NOTE: "FAIR" INDICATES FEW OR NO CLOUDS BELOW 12,000 FEET WITH NO
SIGNIFICANT WEATHER AND/OR OBSTRUCTIONS TO VISIBILITY.


SDZ001>005-009-010-012>017-290500-
NORTHWEST AND NORTH CENTRAL SOUTH DAKOTA

CITY           SKY/WX    TMP DP  RH WIND       PRES   REMARKS
BUFFALO          N/A     33  26  75 NW24G35   30.20R WCI  20
FAITH            N/A     35  27  72 NW23      30.22R WCI  23
MOBRIDGE       CLOUDY    35  29  78 NW23G30   30.14R WCI  23
$$

SDZ012>016-024>037-041>051-057-063-072>074-290500-
SOUTHWEST AND SOUTH CENTRAL SOUTH DAKOTA

CITY           SKY/WX    TMP DP  RH WIND       PRES   REMARKS
RAPID CTY ARPT CLEAR     33  27  78 N21       30.25R WCI  21
PIERRE         CLOUDY    36  29  75 N30G38    30.15R
CUSTER         CLEAR     32  14  47 NW8       30.22R WCI  25
ELLSWORTH AFB  CLEAR     33  27  79 N22G28    30.24R WCI  21
PHILIP         CLOUDY    37  27  67 N29G39    30.23R
PINE RIDGE     CLEAR     34  27  75 N23G36    30.24R WCI  22
WINNER         CLOUDY    37  29  72 NW26G32   30.16R
$$

SDZ004>011-016>023-039-040-290500-
NORTHEAST SOUTH DAKOTA

CITY           SKY/WX    TMP DP  RH WIND       PRES   REMARKS
ABERDEEN       CLOUDY    33  28  81 NW18      30.09R WCI  22
WATERTOWN      CLOUDY    32  29  88 N25G37    29.96R WCI  19
SISSETON         N/A     32  31  96 N29G35    29.98R WCI  18
$$

SDZ017-020-022-023-036>040-048>070-290500-
SOUTHEAST SOUTH DAKOTA

CITY           SKY/WX    TMP DP  RH WIND       PRES   REMARKS
SIOUX FALLS    CLOUDY    34  31  88 N24G38    29.94R WCI  21
HURON          CLOUDY    33  28  81 NW24G36   30.06R WCI  20
CHAMBERLAIN    CLOUDY    34  30  85 NW20G30   30.14R WCI  22
MITCHELL       CLOUDY    35  30  82 NW28G40   30.06R WCI  22
YANKTON        CLOUDY    36  30  80 NW25G32   30.01R
$$

ABBREVIATIONS USED IN REMARKS
   TC - TEMPERATURE IN CELSIUS
  WCI - WIND CHILL INDEX
   HX - HEAT INDEX
  VSB - VISIBILITY



USA.gov is the U.S. government's official web portal to all federal, state and local government web resources and services.